Simultaneous Nadir Overpasses (SNOs) Predictions

Prediction of SNOs between FY3D and TERRA Satellite Orbit:

Table of predicted SNOs for the next 14.0 days since TLE Epoch: 10/24/2020
Index Date (FY3D) Time (FY3D) Lat,Lon (FY3D) SZA (FY3D ) Date (TERRA) Time (TERRA) Lat,Lon (TERRA) SZA (TERRA ) Distance(km) Time Diff (sec)
1 10/24/2020 15:10:36 69.71, -49.09 81.68 10/24/2020 15:11:45 69.58, -47.72 81.58 55.22 69
2 10/24/2020 16:01:06 -69.01, 119.23 99.00 10/24/2020 16:01:23 -69.03, 119.19 98.98 2.91 17
3 10/24/2020 16:51:50 68.91, -73.32 80.92 10/24/2020 16:50:50 68.92, -73.30 80.92 1.31 60
4 10/27/2020 07:27:02 69.92, 66.52 82.80 10/27/2020 07:28:09 69.81, 68.48 82.73 75.90 67
5 10/27/2020 08:17:29 -69.05,-124.90 98.05 10/27/2020 08:17:51 -69.04,-124.91 98.05 0.66 22
6 10/27/2020 09:08:12 68.90, 42.60 81.83 10/27/2020 09:07:18 68.93, 42.59 81.85 2.94 54
7 10/29/2020 23:43:28 70.12,-177.87 83.89 10/29/2020 23:44:34 69.98,-175.40 83.80 95.02 66
8 10/30/2020 00:33:51 -69.03, -8.97 97.17 10/30/2020 00:34:19 -69.05, -9.02 97.16 2.94 28
9 10/30/2020 01:24:35 68.95, 158.46 82.76 10/30/2020 01:23:46 68.93, 158.47 82.74 2.02 49
10 11/01/2020 16:50:14 -69.08, 106.90 96.27 11/01/2020 16:50:47 -69.05, 106.86 96.29 2.84 33
11 11/01/2020 17:40:57 68.95, -85.61 83.62 11/01/2020 17:40:14 68.93, -85.65 83.60 1.93 43
12 11/04/2020 09:06:36 -69.12,-137.25 95.40 11/04/2020 09:07:13 -69.11,-137.19 95.41 2.66 37
13 11/04/2020 09:57:19 69.00, 30.24 84.50 11/04/2020 09:56:40 68.98, 30.30 84.48 2.90 39
14 11/07/2020 01:22:58 -69.11, -21.31 94.60 11/07/2020 01:23:41 -69.10, -21.32 94.61 1.37 43
15 11/07/2020 02:13:41 68.99, 146.16 85.30 11/07/2020 02:13:08 68.97, 146.17 85.27 2.30 33
